Location: Biltmore Gardens
(41.6070°N, 83.4666°W)
Time: 07:40:58
(UTC+00:00)

Vanguard 3 - Pass Details

Date: 22 April 2021
Orbit: 507 x 3262 km, 33.4° (Epoch: 17 May)

Event Time Altitude Azimuth Distance (km) Brightness Sun altitude
Exits shadow 09:54:03 12° 232° (SW) 1,586 8.0 -9.3°
Maximum altitude 09:56:07 18° 194° (SSW) 1,296 7.9 -9.0°
Drops below altitude 10° 09:58:46 10° 149° (SSE) 1,775 9.0 -8.5°
Sets 10:01:42 0° 129° (SE) 2,840 10.3 -8.0°
